Probability
32 61 90 90 90 90 97 97 97 97 97 97 97 97 97 97 94 94 90 90 90 87 77 81 65 68 71 77 74 77 74 81 71 61 68 68 71 68 61 65 55 42 71
48 71 94 94 94 97 97 97 97 97 97 100 94 97 97 97 97 97 94 87 84 81 84 77 81 77 77 84 77 74 68 77 74 74 68 58 58 61 68 61 48 52 68
42 65 87 100 100 100 100 97 97 100 97 100 97 94 94 90 97 97 94 94 84 77 77 74 81 87 87 87 81 84 68 68 74 71 65 26 39 52 65 58 55 61 65
58 71 84 100 100 100 100 100 100 100 100 100 100 100 87 87 94 97 100 97 90 84 84 77 81 74 81 77 77 77 74 74 74 65 39 19 26 48 55 55 68 58 58
77 81 100 100 100 100 100 100 100 100 100 97 100 100 97 94 97 97 90 90 94 90 81 87 84 77 77 77 68 61 58 58 52 45 26 29 39 61 55 48 52 52 52
77 74 100 100 100 100 100 100 100 100 100 100 100 100 100 97 97 94 97 97 94 94 87 87 84 68 74 65 61 48 45 52 52 39 39 35 39 74 58 58 48 48 52
65 84 90 100 100 100 100 97 97 100 100 100 100 100 100 97 97 97 97 97 94 94 87 87 81 77 68 58 45 45 55 55 52 39 52 45 58 81 68 65 45 55 52
52 71 97 100 100 97 94 97 90 97 97 100 100 100 97 100 100 97 94 94 94 90 87 90 87 84 65 55 55 45 48 58 42 32 52 42 71 71 61 65 55 45 45
48 74 90 87 90 94 94 94 94 94 94 97 94 94 97 94 97 94 90 87 81 87 81 81 74 68 58 48 39 42 58 68 39 32 29 48 81 58 52 52 42 42 45
39 58 84 84 84 90 90 94 100 90 90 94 87 87 87 90 87 90 90 84 74 71 77 65 71 65 55 39 35 48 65 65 16 23 35 52 84 58 48 42 35 32 35
52 58 65 74 87 87 71 71 94 94 84 90 90 87 90 94 84 90 84 87 68 68 61 71 71 65 65 42 48 52 52 32 19 26 39 61 74 58 48 39 35 35 39
42 42 65 77 87 81 74 97 97 84 97 97 94 94 97 97 87 52 84 81 68 68 65 77 77 71 71 32 39 55 39 29 23 26 35 77 71 61 58 39 32 32 32
39 48 61 77 87 90 97 90 97 97 94 94 90 90 97 90 87 77 81 71 90 68 74 81 77 58 48 55 65 48 39 23 29 23 45 77 65 65 55 48 45 42 39
52 48 48 68 90 100 100 94 90 84 90 90 94 90 97 94 90 87 94 87 94 84 81 74 81 81 61 68 52 42 32 32 29 32 48 74 71 61 45 48 42 42 39
65 61 74 84 94 97 97 97 90 90 74 84 94 87 90 90 84 84 94 87 87 84 87 87 84 71 81 68 42 45 35 29 39 35 42 68 68 68 58 45 39 42 42
61 74 74 87 90 97 97 90 87 77 87 77 90 81 77 87 90 87 84 94 94 90 84 90 87 77 87 77 71 65 58 42 48 48 45 61 71 74 71 55 52 45 35
81 84 87 90 90 90 90 87 77 81 68 71 81 81 71 81 77 90 90 87 84 84 84 87 84 87 71 65 68 65 68 61 55 55 58 48 48 68 68 71 71 58 45
84 94 87 68 81 87 94 90 84 74 81 81 77 87 74 84 77 87 87 87 90 87 84 84 77 84 77 77 77 71 68 81 65 61 61 58 58 42 61 74 77 71 61
94 94 90 90 90 90 90 90 81 81 77 81 77 84 71 77 71 81 84 94 90 84 84 61 81 84 77 87 74 77 65 71 61 48 55 52 52 58 45 55 74 71 68
90 90 90 87 94 94 90 94 87 84 81 81 77 77 84 81 77 81 84 87 84 87 84 77 68 87 87 84 39 48 61 48 55 61 48 39 45 45 39 39 52 55 71
90 90 90 90 94 90 94 90 90 84 87 81 81 74 84 81 77 84 77 90 90 81 84 74 77 81 84 84 65 55 45 42 42 61 52 48 39 45 42 45 39 39 45
90 90 90 90 90 90 90 94 94 87 84 90 90 90 81 81 81 68 90 87 77 87 84 77 77 71 71 71 71 55 26 26 55 19 52 52 45 52 48 39 45 61 61
90 94 90 94 90 90 94 94 94 87 87 84 87 84 84 77 77 77 77 87 87 84 81 81 77 71 71 68 71 55 29 16 26 39 39 39 48 45 45 35 35 55 52
87 90 94 90 90 90 94 87 87 81 84 84 84 77 81 81 74 77 74 81 84 74 77 74 74 84 77 74 74 71 61 52 29 29 42 45 39 45 45 23 32 45 45
81 87 94 90 90 87 84 87 87 84 74 71 77 77 74 74 74 65 74 71 71 74 71 81 77 77 81 71 65 61 55 55 45 39 26 26 29 35 42 39 52 48 39
87 87 87 90 87 84 84 84 84 84 84 81 74 74 71 74 68 65 68 74 74 74 74 81 81 77 74 68 61 55 45 45 52 48 26 23 16 26 32 39 39 42 39
Height
5887 5887 5886 5886 5886 5886 5885 5885 5885 5884 5885 5884 5884 5884 5884 5884 5884 5884 5885 5885 5885 5886 5886 5887 5887 5887 5888 5888 5889 5890 5890 5890 5891 5892 5892 5892 5892 5893 5893 5894 5894 5895 5895
5888 5888 5888 5887 5887 5887 5887 5886 5886 5886 5886 5885 5885 5885 5885 5885 5885 5886 5886 5886 5887 5887 5887 5888 5888 5889 5889 5890 5890 5891 5891 5892 5892 5892 5893 5893 5893 5894 5894 5895 5895 5895 5896
5889 5889 5889 5888 5888 5888 5888 5888 5887 5887 5887 5887 5887 5887 5887 5887 5887 5887 5887 5888 5888 5888 5889 5889 5889 5890 5890 5891 5891 5892 5892 5893 5893 5893 5894 5894 5894 5895 5895 5895 5896 5896 5896
5891 5890 5890 5890 5890 5889 5889 5889 5889 5888 5888 5888 5888 5888 5888 5888 5888 5888 5888 5889 5889 5890 5890 5890 5890 5891 5892 5892 5893 5893 5893 5894 5894 5895 5895 5895 5895 5896 5896 5896 5897 5897 5897
5892 5891 5891 5891 5891 5890 5890 5890 5890 5889 5889 5889 5889 5889 5889 5889 5889 5889 5889 5890 5890 5891 5891 5891 5892 5892 5893 5893 5894 5894 5894 5895 5895 5896 5896 5896 5896 5897 5897 5897 5898 5898 5898
5893 5892 5892 5892 5891 5891 5891 5891 5890 5890 5890 5890 5890 5890 5890 5890 5890 5890 5891 5891 5892 5892 5892 5893 5893 5894 5894 5894 5895 5895 5895 5896 5896 5897 5897 5897 5897 5898 5898 5898 5898 5899 5899
5894 5893 5893 5892 5892 5892 5892 5891 5891 5891 5891 5891 5891 5891 5891 5891 5891 5891 5892 5892 5893 5893 5893 5894 5894 5895 5895 5895 5895 5896 5896 5897 5897 5897 5897 5898 5899 5899 5899 5899 5899 5900 5900
5895 5894 5894 5893 5893 5893 5892 5892 5892 5892 5892 5892 5892 5892 5892 5892 5892 5892 5893 5893 5893 5894 5894 5895 5895 5896 5896 5896 5896 5897 5897 5898 5898 5898 5899 5899 5899 5900 5900 5900 5900 5900 5900
5897 5896 5895 5895 5894 5893 5893 5893 5893 5893 5893 5893 5893 5893 5893 5893 5893 5893 5894 5894 5894 5895 5896 5896 5896 5896 5897 5897 5898 5898 5898 5899 5899 5899 5900 5900 5900 5900 5900 5900 5901 5901 5901
5898 5897 5897 5896 5895 5895 5894 5894 5893 5893 5893 5893 5893 5893 5894 5894 5894 5894 5894 5895 5895 5896 5897 5897 5897 5897 5898 5898 5899 5899 5899 5899 5900 5900 5900 5900 5901 5901 5901 5901 5901 5901 5902
5900 5899 5898 5897 5897 5896 5895 5895 5894 5894 5894 5894 5894 5895 5895 5895 5895 5895 5896 5896 5897 5897 5897 5898 5898 5898 5899 5899 5899 5900 5900 5900 5900 5901 5901 5901 5901 5901 5901 5902 5902 5902 5902
5902 5901 5900 5899 5898 5897 5897 5896 5895 5895 5895 5895 5895 5895 5895 5896 5896 5897 5897 5897 5898 5898 5898 5899 5899 5899 5899 5900 5900 5901 5901 5901 5901 5901 5901 5901 5902 5902 5902 5902 5902 5902 5903
5904 5903 5901 5900 5899 5898 5897 5897 5896 5896 5895 5895 5896 5896 5896 5896 5897 5897 5898 5898 5899 5899 5899 5899 5900 5900 5900 5901 5901 5901 5901 5902 5902 5902 5902 5902 5902 5902 5902 5902 5903 5903 5903
5906 5904 5903 5902 5901 5899 5899 5898 5897 5896 5896 5896 5896 5896 5897 5897 5897 5898 5899 5899 5899 5900 5900 5900 5900 5901 5901 5901 5902 5902 5902 5902 5902 5903 5902 5902 5903 5903 5903 5903 5903 5903 5903
5908 5906 5904 5903 5902 5901 5900 5899 5898 5897 5896 5896 5897 5897 5897 5898 5898 5899 5899 5899 5900 5900 5900 5901 5901 5901 5901 5902 5902 5902 5902 5903 5903 5903 5903 5903 5903 5903 5903 5903 5903 5903 5903
5910 5908 5906 5904 5903 5902 5900 5899 5898 5897 5897 5897 5897 5897 5898 5898 5898 5899 5899 5900 5900 5900 5901 5901 5901 5901 5902 5902 5902 5902 5902 5903 5903 5903 5903 5903 5903 5903 5903 5903 5903 5903 5902
5912 5909 5907 5905 5904 5903 5901 5900 5899 5898 5897 5897 5898 5898 5898 5898 5899 5899 5899 5900 5900 5900 5900 5901 5901 5901 5902 5902 5902 5902 5902 5902 5903 5903 5903 5903 5903 5903 5903 5902 5902 5902 5902
5913 5911 5909 5907 5905 5904 5902 5901 5900 5899 5898 5898 5898 5898 5898 5898 5899 5899 5900 5900 5900 5900 5900 5901 5901 5901 5901 5901 5902 5902 5902 5902 5902 5902 5902 5902 5902 5902 5902 5901 5901 5901 5901
5915 5913 5911 5909 5907 5905 5904 5902 5901 5900 5900 5899 5899 5899 5899 5899 5899 5899 5900 5900 5900 5900 5900 5900 5900 5901 5901 5901 5901 5901 5901 5901 5901 5901 5901 5901 5901 5901 5901 5900 5900 5900 5900
5917 5915 5913 5910 5908 5907 5905 5904 5903 5901 5901 5900 5900 5899 5899 5899 5899 5899 5899 5899 5900 5900 5900 5900 5900 5900 5900 5900 5900 5900 5901 5900 5900 5900 5900 5900 5900 5900 5899 5899 5898 5898 5898
5918 5916 5914 5912 5910 5908 5907 5905 5904 5903 5902 5901 5900 5900 5899 5899 5899 5899 5899 5899 5899 5899 5899 5899 5899 5899 5899 5899 5900 5899 5899 5899 5899 5899 5899 5899 5898 5898 5897 5897 5897 5896 5896
5920 5918 5916 5914 5911 5910 5908 5907 5905 5904 5903 5902 5901 5900 5900 5899 5899 5899 5899 5899 5899 5899 5899 5898 5898 5898 5898 5898 5898 5898 5898 5898 5897 5897 5897 5897 5897 5896 5895 5895 5895 5894 5894
5921 5919 5917 5915 5913 5911 5909 5908 5907 5905 5904 5903 5902 5901 5900 5899 5899 5899 5898 5898 5898 5898 5898 5898 5897 5897 5897 5897 5896 5896 5896 5896 5895 5895 5895 5894 5894 5894 5893 5892 5892 5891 5891
5923 5921 5918 5916 5914 5912 5910 5909 5908 5906 5905 5904 5902 5901 5900 5899 5899 5898 5898 5897 5897 5897 5897 5896 5896 5895 5895 5895 5894 5894 5894 5893 5893 5892 5892 5892 5891 5891 5890 5890 5889 5888 5887
5925 5922 5920 5918 5916 5914 5912 5910 5909 5907 5906 5904 5903 5901 5900 5899 5899 5898 5897 5897 5897 5896 5896 5895 5895 5894 5894 5893 5893 5892 5892 5891 5890 5890 5890 5889 5888 5888 5887 5886 5885 5884 5883
5926 5924 5922 5919 5917 5915 5913 5911 5909 5908 5906 5905 5903 5902 5900 5899 5898 5897 5896 5896 5895 5895 5895 5894 5894 5893 5892 5892 5891 5891 5890 5889 5888 5888 5887 5886 5885 5885 5884 5883 5881 5880 5879
Wind_Speed
6 5 5 4 4 4 3 3 3 4 4 4 4 5 5 6 6 6 7 7 7 7 7 7 8 8 8 8 8 7 7 7 7 6 6 6 7 6 5 5 6 5 6
6 5 5 4 4 3 3 3 3 3 4 4 4 4 5 5 6 6 6 6 6 7 7 7 7 8 8 8 7 7 7 7 7 7 7 7 7 6 6 6 6 6 5
5 5 5 4 4 3 3 3 3 3 3 3 4 4 5 5 5 5 6 6 6 6 6 7 7 8 8 7 7 6 6 6 6 7 7 7 7 6 6 7 6 5 5
5 5 5 4 4 3 3 2 2 3 3 3 3 4 4 5 5 5 5 5 6 6 6 7 7 7 7 6 6 6 6 6 6 6 6 6 6 7 7 6 6 6 6
6 5 5 4 4 3 2 2 2 2 2 3 3 3 4 4 5 4 5 5 5 6 6 7 6 6 6 6 6 6 6 6 6 6 6 6 6 6 6 6 6 6 6
7 6 5 4 4 2 2 1 1 1 2 2 2 3 3 3 4 4 4 4 4 5 6 6 6 5 5 5 5 6 6 6 6 6 6 6 6 6 6 6 5 5 5
8 7 6 5 4 3 2 2 1 1 1 2 2 2 3 3 4 4 4 4 4 5 5 6 5 5 5 5 5 5 6 5 5 5 6 6 5 5 5 5 5 5 4
9 8 7 6 5 4 3 2 1 1 1 1 1 2 2 3 3 4 4 4 5 5 5 5 5 5 5 5 5 5 5 5 5 5 5 5 5 5 5 4 4 4 3
10 9 8 7 6 4 3 2 2 1 1 1 1 1 2 3 3 3 4 5 5 5 5 6 5 5 5 5 5 5 5 5 5 5 5 5 5 4 4 4 4 3 3
11 10 8 8 7 5 4 3 2 1 0 0 1 1 1 1 2 2 4 4 5 5 5 5 5 5 4 4 4 4 4 5 5 5 4 4 4 4 3 3 3 3 3
12 10 8 8 7 6 5 4 2 1 1 0 1 1 1 1 2 3 4 4 4 4 4 4 4 4 4 4 4 4 4 4 4 4 4 3 3 3 2 2 2 2 2
13 11 9 8 7 6 5 4 3 2 1 0 1 1 1 1 2 3 3 3 3 3 3 3 3 3 3 3 3 3 3 3 3 3 3 3 3 2 2 2 2 2 2
14 13 10 8 8 7 7 6 4 3 1 0 1 1 1 2 2 3 3 3 3 2 2 2 3 3 2 2 2 2 2 2 2 2 2 2 2 2 2 2 2 2 2
15 14 12 10 9 8 7 6 5 3 2 1 0 1 1 1 2 2 2 2 1 1 1 0 1 1 1 1 1 1 1 1 1 1 1 1 1 1 1 1 1 1 1
16 15 13 11 9 9 8 6 5 3 2 1 0 1 1 1 1 2 1 1 1 1 1 0 1 1 1 0 0 0 0 0 0 0 1 1 1 1 1 2 2 2 2
16 16 14 12 10 9 8 8 6 5 3 1 1 0 1 1 1 1 1 1 1 1 1 2 1 1 1 0 0 1 1 1 1 1 1 1 1 2 2 3 3 3 3
17 16 15 13 11 10 9 8 7 6 4 3 2 1 1 1 1 1 1 2 2 2 2 2 1 1 1 2 2 2 2 2 2 2 2 2 3 3 3 4 4 4 4
17 17 15 13 12 11 10 9 8 7 4 3 2 2 2 1 1 1 1 2 2 2 2 2 2 3 3 3 3 3 3 3 3 3 4 4 5 5 5 5 5 5 6
18 17 16 15 13 12 11 10 9 7 5 4 3 2 2 1 1 1 2 2 2 3 3 3 3 3 4 4 4 4 4 5 5 4 5 5 6 6 6 7 6 6 7
18 16 16 15 14 13 12 12 11 9 7 5 4 3 3 2 2 2 2 2 3 4 4 4 4 4 4 4 5 5 6 6 6 6 6 6 7 7 8 8 8 8 9
18 17 17 16 15 14 14 13 12 10 8 6 6 5 5 4 3 2 3 3 4 4 5 5 5 5 5 6 6 7 7 7 7 7 7 8 8 8 8 9 9 10 11
18 18 18 17 16 15 14 13 12 11 9 8 7 7 6 4 3 3 3 4 4 5 5 6 7 7 7 7 8 8 8 9 9 9 9 9 10 10 10 10 11 12 13
18 18 17 17 16 15 15 14 13 12 11 10 9 8 7 5 4 4 4 4 5 5 6 6 7 8 8 8 9 9 8 9 9 10 10 11 11 11 12 12 13 13 14
17 17 17 17 16 15 15 13 13 12 11 11 9 9 7 6 5 5 5 5 6 6 6 6 7 8 8 9 9 10 10 10 10 11 11 12 13 13 14 14 14 15 15
17 17 17 17 17 16 15 13 12 12 11 11 11 9 8 7 7 7 6 6 6 6 7 7 7 8 8 9 9 9 10 10 11 11 12 12 13 14 14 15 15 15 16
16 16 16 17 16 16 15 14 13 12 12 12 11 10 9 9 8 8 7 7 7 7 7 8 8 8 8 9 9 10 10 11 12 12 13 14 14 15 16 16 16 17 18
Wind_Direction
59 62 60 56 57 60 68 77 99 106 112 114 117 117 113 111 111 112 111 106 106 106 103 97 96 98 95 93 94 96 95 93 91 85 78 76 79 81 82 82 85 84 88
58 62 63 61 65 64 67 76 87 98 107 109 113 116 111 111 114 113 110 112 110 109 108 107 102 100 95 92 94 93 93 91 85 78 77 76 82 83 83 80 79 80 84
54 59 59 56 57 62 63 59 75 95 105 107 116 118 115 115 117 116 114 115 116 115 111 106 102 99 94 92 92 91 91 91 85 79 79 80 81 83 85 80 77 81 86
50 51 50 48 43 44 47 52 77 93 105 115 123 123 120 118 120 115 113 115 115 115 111 102 96 96 96 92 88 90 93 90 88 84 84 81 81 83 81 82 78 84 86
44 42 40 36 33 33 30 39 64 84 103 117 123 126 125 124 123 118 110 109 110 109 105 99 97 100 98 95 91 95 96 96 91 87 87 84 84 82 78 79 83 81 78
42 40 35 29 25 20 16 24 47 76 102 112 111 116 124 127 127 121 116 114 108 110 107 102 98 102 98 96 98 100 98 95 91 91 89 86 83 78 76 75 76 76 73
43 39 33 24 18 10 4 9 22 50 93 107 104 103 119 128 125 122 124 127 118 114 115 111 103 103 101 102 103 103 99 91 89 90 86 84 84 82 79 74 74 71 70
42 37 33 28 19 12 6 3 357 13 71 114 108 103 111 122 124 122 123 121 119 116 115 113 110 111 107 105 106 108 99 93 87 87 86 85 86 84 78 71 71 70 65
38 36 31 30 24 20 13 2 353 355 48 97 113 114 109 117 123 135 132 119 116 116 114 110 110 111 106 104 102 103 100 94 88 88 86 88 88 85 78 71 68 67 58
36 37 34 30 29 29 24 17 7 348 11 133 151 118 109 112 124 129 137 121 116 116 115 110 109 105 102 102 100 101 96 88 88 89 86 89 91 88 78 72 64 56 48
34 36 34 39 34 30 26 21 12 351 315 180 160 150 131 148 130 131 125 117 112 111 114 111 106 102 102 100 97 93 92 89 85 82 80 81 80 77 74 68 48 32 35
33 31 31 31 32 28 20 18 16 13 340 175 168 181 159 142 135 131 122 117 113 106 108 107 97 99 103 99 102 94 86 85 81 77 78 72 69 67 64 56 37 26 27
30 28 26 25 28 27 19 16 13 5 16 81 182 196 171 155 145 133 124 118 113 107 108 104 98 106 102 110 108 98 89 79 83 88 91 76 72 68 57 46 42 44 46
27 25 24 24 24 25 20 13 12 5 1 7 202 200 192 180 172 161 152 129 133 124 111 126 98 120 120 111 114 117 109 77 77 88 87 73 65 62 39 26 36 23 4
27 25 25 27 26 27 22 16 14 10 351 342 63 172 188 198 199 183 157 173 174 205 242 271 204 137 127 81 123 176 139 37 38 99 79 51 25 9 348 338 331 324 320
26 24 23 23 24 22 21 19 18 20 11 18 51 32 205 206 212 205 230 254 271 298 274 274 231 178 198 233 260 284 286 298 312 284 285 313 320 311 303 312 315 310 313
26 24 22 22 21 19 18 17 14 19 18 21 10 358 353 234 228 247 263 271 285 301 296 276 250 248 258 274 282 287 282 280 286 288 294 297 296 297 296 294 296 297 297
25 25 25 23 22 19 17 20 18 17 24 30 16 12 12 2 234 271 281 271 271 287 287 271 259 258 271 285 289 290 287 280 274 277 285 291 291 290 292 291 290 292 291
23 24 24 24 24 24 24 23 23 23 28 33 28 16 358 337 293 289 293 266 269 282 281 271 268 269 272 276 280 284 288 289 280 274 281 289 294 289 288 288 288 294 292
19 20 20 21 23 25 24 23 23 23 25 26 25 14 5 356 330 309 307 292 280 281 279 274 272 278 276 274 272 274 279 286 285 283 284 285 291 292 291 287 287 289 289
17 20 20 19 20 20 20 22 21 23 25 24 21 17 6 357 343 327 307 304 299 296 289 284 282 280 280 282 280 276 276 281 284 285 285 285 290 291 291 290 291 288 286
15 17 18 19 20 20 21 22 22 21 22 21 18 16 11 5 349 331 320 305 306 306 302 295 289 288 284 284 285 283 279 282 283 280 280 284 290 293 294 292 290 289 289
15 16 18 19 19 20 20 20 20 20 20 19 15 12 12 10 1 336 324 315 309 310 312 308 298 294 291 289 289 289 287 287 284 282 283 286 290 293 292 291 292 291 290
15 16 16 17 17 18 17 16 16 16 14 13 9 6 5 3 353 340 323 314 310 309 313 313 306 301 299 296 294 293 291 292 290 286 288 292 294 293 293 292 292 294 293
12 13 15 16 16 16 15 13 13 13 12 9 5 3 0 357 351 342 332 321 310 307 309 310 310 306 307 306 303 299 298 296 295 296 297 296 295 295 294 295 297 296 295
7 9 11 13 14 15 14 12 11 11 10 7 6 3 360 356 350 341 329 323 316 308 306 307 306 307 306 304 304 303 299 298 299 299 296 295 296 297 296 297 296 296 295